Location: Lombard
(41.8800°N, 88.0080°W)
Time: 00:18:27
(UTC-05:00)

Transit 2A - Pass Details

Date: 11 February 2023
Orbit: 591 x 964 km, 66.7° (Epoch: 20 March)

Event Time Altitude Azimuth Distance (km) Brightness Sun altitude
Rises 21:11:38 0° 339° (NNW) 3,470 9.9 -43.0°
Enters shadow 21:13:54 - 353° (N) 2,955 9.3 -43.4°
Reaches altitude 10° 21:16:17 10° 12° (NNE) 2,611 - -43.8°
Maximum altitude 21:18:11 11° 31° (NNE) 2,535 - -44.1°
Drops below altitude 10° 21:20:06 10° 49° (NE) 2,659 - -44.5°
Sets 21:24:58 0° 81° (E) 3,640 - -45.3°
